• In Hungary
  • List of Countries
  • For 7 days
  • Water Temperature
  • Satellite Maps
  • Weather Map
  • News
  • Weather Widgets
  • user-avatar
    Login

    Hourly Weather Myurego

    Today, 18 September, Tuesday

    Time Temperature Precipitation Wind Pressure Humidity
    00:00 +18°C° 0.1 mm 2 mps 717 mmHg 87%
    01:00 +17°C° 0 mm 2 mps 717 mmHg 86%
    02:00 +17°C° 0 mm 2 mps 717 mmHg 86%
    03:00 +17°C° 0 mm 3 mps 717 mmHg 87%
    04:00 +17°C° 0 mm 4 mps 717 mmHg 87%
    05:00 +17°C° 0 mm 4 mps 718 mmHg 87%
    06:00 +15°C° 0 mm 4 mps 718 mmHg 87%
    07:00 +17°C° 0 mm 4 mps 718 mmHg 81%
    08:00 +19°C° 0 mm 4 mps 718 mmHg 75%
    09:00 +20°C° 0 mm 4 mps 719 mmHg 68%
    10:00 +20°C° 0 mm 4 mps 719 mmHg 67%
    11:00 +20°C° 0 mm 4 mps 719 mmHg 66%
    12:00 +20°C° 0 mm 4 mps 719 mmHg 64%
    13:00 +21°C° 0 mm 4 mps 719 mmHg 63%
    14:00 +21°C° 0 mm 3 mps 718 mmHg 62%
    15:00 +21°C° 0 mm 3 mps 718 mmHg 61%
    16:00 +20°C° 0 mm 2 mps 718 mmHg 65%
    17:00 +18°C° 0 mm 2 mps 718 mmHg 69%
    18:00 +18°C° 0 mm 1 mps 718 mmHg 73%
    19:00 +16°C° 0 mm 2 mps 719 mmHg 74%
    20:00 +16°C° 0 mm 2 mps 719 mmHg 75%
    21:00 +15°C° 0 mm 2 mps 719 mmHg 75%
    22:00 +15°C° 0 mm 2 mps 719 mmHg 75%
    23:00 +15°C° 0 mm 2 mps 719 mmHg 75%

    Tomorrow, 19 September, Wednesday

    Time Temperature Precipitation Wind Pressure Humidity
    00:00 +15°C° 0 mm 2 mps 719 mmHg 75%
    01:00 +15°C° 0 mm 2 mps 719 mmHg 75%
    02:00 +15°C° 0 mm 2 mps 719 mmHg 75%
    03:00 +14°C° 0 mm 2 mps 719 mmHg 75%
    04:00 +14°C° 0 mm 2 mps 719 mmHg 74%
    05:00 +14°C° 0 mm 2 mps 719 mmHg 73%
    06:00 +14°C° 0 mm 2 mps 719 mmHg 72%
    07:00 +16°C° 0 mm 2 mps 719 mmHg 65%
    08:00 +19°C° 0 mm 2 mps 720 mmHg 57%
    09:00 +21°C° 0 mm 2 mps 720 mmHg 50%
    10:00 +21°C° 0 mm 2 mps 720 mmHg 49%
    11:00 +23°C° 0 mm 2 mps 720 mmHg 47%
    12:00 +24°C° 0 mm 3 mps 719 mmHg 46%
    13:00 +24°C° 0 mm 3 mps 719 mmHg 47%
    14:00 +22°C° 0 mm 3 mps 719 mmHg 48%
    15:00 +23°C° 0 mm 2 mps 719 mmHg 48%
    16:00 +21°C° 0 mm 2 mps 719 mmHg 53%
    17:00 +19°C° 0 mm 2 mps 719 mmHg 57%
    18:00 +17°C° 0 mm 2 mps 718 mmHg 62%
    19:00 +17°C° 0 mm 2 mps 719 mmHg 63%
    20:00 +16°C° 0 mm 2 mps 719 mmHg 64%
    21:00 +16°C° 0 mm 3 mps 719 mmHg 64%
    22:00 +16°C° 0 mm 3 mps 719 mmHg 66%
    23:00 +16°C° 0 mm 3 mps 719 mmHg 67%

    Day after tomorrow, 20 September, Thursday

    Time Temperature Precipitation Wind Pressure Humidity
    00:00 +14°C° 0 mm 3 mps 720 mmHg 68%
    01:00 +14°C° 0 mm 3 mps 720 mmHg 67%
    02:00 +14°C° 0 mm 3 mps 720 mmHg 67%
    03:00 +14°C° 0 mm 3 mps 720 mmHg 66%
    04:00 +14°C° 0 mm 3 mps 720 mmHg 65%
    05:00 +14°C° 0 mm 3 mps 720 mmHg 63%
    06:00 +14°C° 0 mm 3 mps 720 mmHg 61%
    07:00 +17°C° 0 mm 3 mps 720 mmHg 55%
    08:00 +19°C° 0 mm 3 mps 720 mmHg 49%
    09:00 +21°C° 0 mm 2 mps 721 mmHg 43%
    10:00 +22°C° 0 mm 3 mps 721 mmHg 42%
    11:00 +24°C° 0 mm 3 mps 721 mmHg 42%
    12:00 +25°C° 0 mm 3 mps 720 mmHg 41%
    13:00 +24°C° 0 mm 3 mps 720 mmHg 44%
    14:00 +24°C° 0 mm 3 mps 720 mmHg 46%
    15:00 +24°C° 0 mm 3 mps 720 mmHg 48%
    16:00 +21°C° 0 mm 2 mps 720 mmHg 56%
    17:00 +19°C° 0 mm 2 mps 719 mmHg 64%
    18:00 +17°C° 0 mm 2 mps 719 mmHg 72%
    19:00 +17°C° 0 mm 2 mps 719 mmHg 72%
    20:00 +17°C° 0 mm 2 mps 720 mmHg 72%
    21:00 +17°C° 0 mm 2 mps 720 mmHg 72%
    22:00 +16°C° 0 mm 2 mps 719 mmHg 71%
    23:00 +16°C° 0 mm 2 mps 719 mmHg 71%

    21 September, Friday

    Time Temperature Precipitation Wind Pressure Humidity
    00:00 +16°C° 0 mm 2 mps 719 mmHg 70%
    01:00 +16°C° 0 mm 2 mps 719 mmHg 69%
    02:00 +16°C° 0 mm 2 mps 719 mmHg 69%
    03:00 +16°C° 0 mm 2 mps 718 mmHg 69%
    04:00 +16°C° 0 mm 2 mps 718 mmHg 68%
    05:00 +16°C° 0 mm 2 mps 718 mmHg 67%
    06:00 +16°C° 0 mm 2 mps 718 mmHg 66%
    07:00 +18°C° 0 mm 2 mps 718 mmHg 59%
    08:00 +21°C° 0 mm 2 mps 719 mmHg 52%
    09:00 +24°C° 0 mm 2 mps 719 mmHg 45%
    10:00 +25°C° 0 mm 3 mps 719 mmHg 44%
    11:00 +26°C° 0 mm 3 mps 718 mmHg 43%
    12:00 +27°C° 0 mm 4 mps 718 mmHg 42%
    13:00 +26°C° 0 mm 3 mps 718 mmHg 45%
    14:00 +26°C° 0 mm 3 mps 718 mmHg 49%
    15:00 +26°C° 0 mm 3 mps 717 mmHg 52%
    16:00 +24°C° 0 mm 2 mps 717 mmHg 61%
    17:00 +21°C° 0 mm 2 mps 717 mmHg 70%
    18:00 +20°C° 0 mm 1 mps 717 mmHg 80%
    19:00 +20°C° 0 mm 1 mps 718 mmHg 80%
    20:00 +20°C° 0 mm 1 mps 718 mmHg 80%
    21:00 +19°C° 0 mm 1 mps 718 mmHg 80%
    22:00 +19°C° 0 mm 1 mps 718 mmHg 79%
    23:00 +19°C° 0 mm 1 mps 718 mmHg 78%

    22 September, Saturday

    Time Temperature Precipitation Wind Pressure Humidity
    00:00 +19°C° 0 mm 1 mps 718 mmHg 77%
    01:00 +19°C° 0 mm 1 mps 717 mmHg 77%
    02:00 +19°C° 0 mm 1 mps 717 mmHg 76%
    03:00 +18°C° 0 mm 1 mps 717 mmHg 75%
    04:00 +18°C° 0 mm 1 mps 717 mmHg 74%
    05:00 +18°C° 0 mm 1 mps 717 mmHg 73%
    06:00 +18°C° 0 mm 1 mps 717 mmHg 72%
    07:00 +20°C° 0 mm 1 mps 718 mmHg 66%
    08:00 +23°C° 0 mm 2 mps 718 mmHg 59%
    09:00 +25°C° 0 mm 2 mps 718 mmHg 52%
    10:00 +25°C° 0 mm 2 mps 718 mmHg 52%
    11:00 +26°C° 0 mm 3 mps 717 mmHg 51%
    12:00 +27°C° 0 mm 3 mps 717 mmHg 50%
    13:00 +26°C° 0 mm 3 mps 717 mmHg 53%
    14:00 +26°C° 0 mm 3 mps 717 mmHg 55%
    15:00 +26°C° 0 mm 3 mps 717 mmHg 58%
    16:00 +24°C° 0 mm 3 mps 717 mmHg 68%
    17:00 +21°C° 0 mm 2 mps 717 mmHg 77%
    18:00 +20°C° 0 mm 1 mps 717 mmHg 87%
    19:00 +20°C° 0 mm 1 mps 717 mmHg 86%
    20:00 +20°C° 0 mm 1 mps 717 mmHg 86%
    21:00 +19°C° 0 mm 1 mps 717 mmHg 86%
    22:00 +19°C° 0 mm 1 mps 717 mmHg 83%
    23:00 +19°C° 0 mm 1 mps 717 mmHg 81%

    23 September, Sunday

    Time Temperature Precipitation Wind Pressure Humidity
    00:00 +19°C° 0 mm 1 mps 716 mmHg 79%
    01:00 +19°C° 0 mm 1 mps 716 mmHg 77%
    02:00 +19°C° 0 mm 1 mps 716 mmHg 74%
    03:00 +19°C° 0 mm 1 mps 716 mmHg 72%
    04:00 +18°C° 0 mm 2 mps 716 mmHg 71%
    05:00 +18°C° 0 mm 2 mps 716 mmHg 70%
    06:00 +18°C° 0 mm 2 mps 716 mmHg 69%
    07:00 +19°C° 0 mm 2 mps 716 mmHg 65%
    08:00 +21°C° 0 mm 2 mps 716 mmHg 60%
    09:00 +24°C° 0 mm 3 mps 716 mmHg 56%
    10:00 +25°C° 0.1 mm 3 mps 715 mmHg 56%
    11:00 +25°C° 0.1 mm 4 mps 715 mmHg 56%
    12:00 +26°C° 0.1 mm 4 mps 715 mmHg 56%
    13:00 +26°C° 0.1 mm 4 mps 715 mmHg 58%
    14:00 +26°C° 0.1 mm 4 mps 714 mmHg 61%
    15:00 +26°C° 0.1 mm 4 mps 714 mmHg 63%
    16:00 +24°C° 0.1 mm 3 mps 714 mmHg 72%
    17:00 +21°C° 0.1 mm 3 mps 714 mmHg 80%
    18:00 +20°C° 0.1 mm 2 mps 714 mmHg 88%
    19:00 +19°C° 0 mm 2 mps 714 mmHg 86%
    20:00 +19°C° 0 mm 2 mps 714 mmHg 85%
    21:00 +19°C° 0 mm 2 mps 714 mmHg 83%
    22:00 +18°C° 0 mm 2 mps 714 mmHg 80%
    23:00 +18°C° 0 mm 2 mps 714 mmHg 76%
    Show more